DL7GAI-7 Weather Reports


time (UTC)temp
C
wind
direction
speed
KPH
gust
KPH
rain 1hr
cm
rain 24hr
cm
rain mn
cm
humidity
%
barometer
mb
20260831130808 22 270 22.5 35.4 0.00 0.00 2.72 48 1017.2
20260831125457 22 270 19.3 35.4 0.00 0.00 2.72 50 1017.5
20260831124041 22 270 19.3 35.4 0.00 0.00 2.72 50 1017.5
20260831122622 22 270 19.3 35.4 0.00 0.00 2.72 51 1017.7
20260831121207 22 270 19.3 35.4 0.00 0.00 2.72 51 1017.7
20260831115857 21 225 20.9 35.4 0.00 0.00 2.72 54 1017.7
20260831114547 21 225 20.9 35.4 0.00 0.00 2.72 54 1017.7
20260831113312 21 270 20.9 32.2 0.00 0.00 2.72 56 1017.9
20260831111922 21 270 20.9 32.2 0.00 0.00 2.72 56 1017.9
20260831110501 20 270 19.3 37.0 0.00 0.00 2.72 58 1018.1
20260831105147 20 270 19.3 37.0 0.00 0.00 2.72 58 1018.1
20260831103737 20 270 19.3 37.0 0.00 0.00 2.72 58 1018.1
20260831102406 20 270 22.5 37.0 0.00 0.00 2.72 56 1018.2
20260831101047 20 270 22.5 37.0 0.00 0.00 2.72 56 1018.2
20260831095632 19 270 19.3 32.2 0.00 0.00 2.72 63 1018.2
20260831094312 19 270 19.3 32.2 0.00 0.00 2.72 63 1018.2
20260831092941 18 270 17.7 30.6 0.00 0.00 2.72 70 1018.2
20260831091727 18 270 17.7 30.6 0.00 0.00 2.72 70 1018.2
20260831090312 18 270 17.7 27.4 0.00 0.00 2.72 71 1018.2
20260831084917 18 270 17.7 27.4 0.00 0.00 2.72 71 1018.2
20260831083533 18 270 16.1 27.4 0.00 0.00 2.72 76 1018.0
20260831082117 18 270 16.1 27.4 0.00 0.00 2.72 76 1018.0
20260831080657 18 270 16.1 27.4 0.00 0.00 2.72 76 1018.0
20260831075332 18 270 14.5 25.7 0.00 0.00 2.72 80 1017.5
20260831074007 18 270 14.5 25.7 0.00 0.00 2.72 80 1017.5
20260831072652 18 270 14.5 25.7 0.00 0.00 2.72 84 1017.3
20260831071300 18 270 14.5 25.7 0.00 0.00 2.72 84 1017.3
20260831065911 17 225 3.2 14.5 0.00 0.00 2.72 88 1017.2
20260831064552 17 225 3.2 14.5 0.00 0.00 2.72 88 1017.2
20260831063237 16 135 3.2 6.4 0.00 2.72 2.72 95 1017.3
20260831061902 16 135 3.2 6.4 0.00 2.72 2.72 95 1017.3
20260831060512 16 180 1.6 8.0 0.00 2.72 2.72 96 1017.2
20260831055042 16 180 1.6 8.0 0.00 2.72 2.72 96 1017.2
20260831053740 16 180 1.6 8.0 0.00 2.72 2.72 96 1017.2
20260831052457 16 90 3.2 8.0 0.00 2.72 2.72 96 1017.2
20260831051157 16 90 3.2 8.0 0.00 2.72 2.72 96 1017.2
20260831045827 16 225 1.6 12.9 0.00 2.72 2.72 94 1017.1
20260831044442 16 225 1.6 12.9 0.00 2.72 2.72 94 1017.1
20260831043117 17 225 6.4 12.9 0.00 2.72 2.72 92 1017.1
20260831041800 17 225 6.4 12.9 0.00 2.72 2.72 92 1017.1
20260831040452 17 225 8.0 17.7 0.00 2.72 2.72 89 1016.9
20260831035041 17 225 8.0 17.7 0.00 2.72 2.72 89 1016.9
20260831033717 17 225 8.0 17.7 0.00 2.72 2.72 89 1016.9
20260831032332 0 0 0.0 0.0 0.00 2.72 2.72 1
20260831031047 0 0 0.0 0.0 0.00 2.72 2.72 1
20260831025744 0 0 0.0 0.0 0.00 2.72 2.72 1
20260831024317 0 0 0.0 0.0 0.00 2.72 2.72 1
20260831022834 0 0 0.0 0.0 0.00 2.72 2.72 1
20260831021547 0 0 0.0 0.0 0.00 2.72 2.72 1
20260831020117 0 0 0.0 0.0 0.00 2.72 2.72 1
20260831013357 0 0 0.0 0.0 0.00 2.72 2.72 1
20260831012012 0 0 0.0 0.0 0.00 2.72 2.72 1
20260831010622 0 0 0.0 0.0 0.00 2.72 2.72 1
20260831005246 0 0 0.0 0.0 0.00 2.72 2.72 1
20260831003846 0 0 0.0 0.0 0.00 2.72 2.72 1
20260831002502 0 0 0.0 0.0 0.00 2.72 2.72 1
20260831001152 0 0 0.0 0.0 0.00 2.72 2.72 1
20260830235816 0 0 0.0 0.0 0.00 2.72 2.72 1
20260830234412 0 0 0.0 0.0 0.00 2.72 2.72 1
20260830233052 17 0 3.2 8.0 0.00 2.72 2.72 90 1014.2
20260830231637 17 0 3.2 8.0 0.00 2.72 2.72 90 1014.2
20260830230342 17 45 3.2 6.4 0.00 2.72 2.72 86 1014.3
20260830225117 17 45 3.2 6.4 0.00 2.72 2.72 86 1014.3
20260830223852 17 45 3.2 6.4 0.00 2.72 2.72 86 1014.3
20260830222622 17 45 4.8 6.4 0.00 2.72 2.72 85 1014.3
20260830221352 17 45 4.8 6.4 0.00 2.72 2.72 85 1014.3
20260830220017 18 45 4.8 8.0 0.00 2.72 2.72 83 1014.4
20260830214706 18 45 4.8 8.0 0.00 2.72 2.72 83 1014.4
20260830213342 18 45 4.8 6.4 0.00 2.72 2.72 81 1014.4
20260830211952 18 45 4.8 6.4 0.00 2.72 2.72 81 1014.4
20260830210626 18 45 4.8 6.4 0.00 2.72 2.72 81 1014.4
20260830205240 19 45 4.8 6.4 0.00 2.72 2.72 81 1014.5
20260830203805 19 45 4.8 6.4 0.00 2.72 2.72 81 1014.5
20260830202517 20 45 3.2 6.4 0.00 2.72 2.72 77 1014.2
20260830201146 20 45 3.2 6.4 0.00 2.72 2.72 77 1014.2
20260830195922 21 45 6.4 9.7 0.00 2.72 2.72 74 1014.1
20260830194552 21 45 6.4 9.7 0.00 2.72 2.72 74 1014.1
20260830193126 24 59 0.0 0.0 2.72 2.72 2.72 17 1013.3
20260830191706 24 59 0.0 0.0 2.72 2.72 2.72 17 1013.3
20260830190241 24 90 4.8 11.3 0.00 0.00 0.00 59 1013.3
20260830184942 24 90 4.8 11.3 0.00 0.00 0.00 59 1013.3
20260830183622 24 90 4.8 11.3 0.00 0.00 0.00 59 1013.3
20260830182244 26 315 4.8 9.7 0.00 0.00 0.00 45 1012.9
20260830181012 26 315 4.8 9.7 0.00 0.00 0.00 45 1012.9
20260830175617 26 315 9.7 17.7 0.00 0.00 0.00 43 1012.9
20260830174342 26 315 9.7 17.7 0.00 0.00 0.00 43 1012.9
20260830173026 26 315 11.3 17.7 0.00 0.00 0.00 42 1012.9
20260830171737 26 315 11.3 17.7 0.00 0.00 0.00 42 1012.9
20260830170513 26 315 11.3 22.5 0.00 0.00 0.00 46 1012.9
20260830165046 26 315 11.3 22.5 0.00 0.00 0.00 46 1012.9
20260830163637 26 315 11.3 22.5 0.00 0.00 0.00 46 1012.9
20260830162242 26 270 9.7 22.5 0.00 0.00 0.00 47 1013.3
20260830160957 26 270 9.7 22.5 0.00 0.00 0.00 47 1013.3
20260830155727 26 270 9.7 22.5 0.00 0.00 0.00 50 1013.3
20260830154346 26 270 9.7 22.5 0.00 0.00 0.00 50 1013.3
20260830153052 26 315 9.7 22.5 0.00 0.00 0.00 47 1013.5
20260830151742 26 315 9.7 22.5 0.00 0.00 0.00 47 1013.5
20260830150407 26 270 11.3 25.7 0.00 0.00 0.00 49 1013.6
20260830145002 26 270 11.3 25.7 0.00 0.00 0.00 49 1013.6
20260830143557 26 270 11.3 25.7 0.00 0.00 0.00 48 1013.9
20260830142247 26 270 11.3 25.7 0.00 0.00 0.00 48 1013.9
20260830140802 26 270 11.3 25.7 0.00 0.00 0.00 48 1013.9
20260830135442 26 270 16.1 27.4 0.00 0.00 0.00 49 1014.1
20260830134217 26 270 16.1 27.4 0.00 0.00 0.00 49 1014.1
20260830132917 25 270 14.5 27.4 0.00 0.00 0.00 48 1014.3